Retour au catalogue

STARLINK-2482

ActifCommunicationsVLEO
NORAD 48139·PAYLOAD·🇺🇸 United States

Lancé Apr 7, 2021 depuis Cape Canaveral Space Force Station

Loading…

Prochains Passages (prochaines 24 heures)

TLE

FraisSource: CelesTrak SupGP

Époque: Sep 15, 2026, 02:32 UTC

1 48139C 21027AZ  26258.10604167  .00046103  00000+0  14822-2 0  2585
2 48139  53.1595 351.2319 0000988  94.6531  84.3117 15.31687869    11

Suivez STARLINK-2482 en temps réel avec AllMySat

Download on the App Store